Location: Findelen
(46.2000°N, 7.9167°E)
Time: 11:25:10
(UTC+00:00)

Daily predictions for brighter satellites

Satellite Brightness Start Highest point End
(mag) Time Altitude Azimuth Time Altitude Azimuth Time Altitude Azimuth
Cosmos 1898 Rocket 3.9 16:48:05 10° S 16:53:01 43° ESE 16:57:58 10° NE
Cosmos 923 Rocket 4.1 16:48:30 10° NNW 16:53:53 85° ENE 16:59:10 10° SSE
TELKOM 3 3.9 16:54:11 10° WNW 16:56:06 28° N 16:58:07 10° ENE
CZ-4C R/B 3.1 16:53:10 10° N 16:56:21 71° WNW 16:59:34 10° SSW
Cosmos 1680 Rocket 3.5 16:52:55 10° NNW 16:58:10 71° ENE 17:03:21 10° SSE
Nadezhda 4 Rocket 4.0 16:53:11 10° S 16:59:21 70° E 17:05:29 10° NNE
Meteor 2-10 Rocket 4.0 16:55:38 10° NNW 17:00:59 67° W 17:06:04 10° S
NOAA 12 4.4 16:56:52 10° S 17:02:05 75° WSW 17:07:22 10° NNW
CZ-4B R/B 2.2 17:01:58 10° NE 17:04:53 28° E 17:07:42 10° SSE
CZ-2D R/B 3.9 17:01:58 10° SE 17:05:25 33° ENE 17:08:52 10° N
Landsat 5 3.8 17:02:15 10° N 17:06:04 61° WNW 17:09:50 10° SSW
MOS 1 Rocket 4.0 17:02:51 10° NE 17:06:35 28° E 17:10:20 10° SSE
NOAA 11 4.3 17:03:56 10° SSE 17:09:26 85° WSW 17:14:59 10° NNW
Cosmos-2242 4.0 17:06:07 10° NNE 17:09:39 24° ENE 17:13:11 10° SE
NOSS 3-1 (C) 4.1 17:04:42 10° NW 17:12:12 85° NE 17:20:55 10° SE
COSMO-SKYMED 1 3.0 17:09:54 10° NNE 17:14:02 41° E 17:18:08 10° S
BREEZE-M DEB (TANK) 2.4 17:13:09 10° WNW 17:15:21 38° N 17:17:14 13° ENE
Cosmos 1937 Rocket 3.8 17:10:33 10° S 17:15:40 50° ESE 17:20:48 10° NNE
Cosmos 1758 Rocket 4.4 17:12:42 10° SSE 17:16:37 31° E 17:20:35 10° NNE
Aureole 3 2.8 17:14:26 10° NNW 17:17:30 74° W 17:20:28 10° S
Okean 1-7 Rocket 4.3 17:13:06 10° SSW 17:17:36 59° WNW 17:22:08 10° N
USA 290 3.0 17:18:49 10° N 17:21:41 30° ENE 17:24:33 10° SE
NOSS 2-1 (C) 3.1 17:20:23 10° SW 17:23:42 67° NW 17:27:11 10° NE
Cosmos 1833 Rocket 2.8 17:20:07 10° NNW 17:25:36 52° ENE 17:31:05 10° SE
H-2A R/B 2.6 17:23:17 10° SE 17:27:53 36° ENE 17:32:37 10° N
Meteor 1-21 Rocket 4.3 17:23:39 10° SSW 17:29:11 80° WNW 17:34:50 10° N
NOSS 2-1 (D) 3.4 17:26:22 10° SW 17:29:38 57° NW 17:33:06 10° NNE
Cosmos 1939 Rocket 2.9 17:26:01 10° SSE 17:30:05 84° WSW 17:34:09 10° NNW
Helios 1A Rocket 3.9 17:27:03 10° ESE 17:30:29 26° ENE 17:33:57 10° N
H-2A R/B 2.8 17:26:57 10° N 17:31:15 55° WNW 17:35:24 10° SSW
Cosmos 2344 4.3 17:22:53 10° NW 17:32:04 71° NE 17:44:54 10° SE
Cosmos 1602 Rocket 3.5 17:28:59 10° S 17:33:20 82° E 17:37:46 10° N
USA 229 DEB 3.9 17:26:20 10° NW 17:33:40 84° NE 17:41:24 10° SE
Cosmos 44 4.1 17:28:58 10° SW 17:33:42 52° NW 17:38:46 10° NNE
USA 229 3.9 17:26:26 10° NW 17:33:47 84° NE 17:41:31 10° SE
Cosmos 2026 Rocket 4.0 17:28:32 10° S 17:34:33 62° E 17:40:43 10° NNE
SeaSat 1 4.4 17:30:34 10° N 17:34:36 26° NW 17:38:36 10° WSW
CZ-3B R/B 2.0 17:32:12 10° NW 17:34:49 70° NE 17:42:33 10° ESE
Feng Yun 1-1 Rocket 4.2 17:29:54 10° SSE 17:35:23 83° ENE 17:41:03 10° NNW
CSL-04 DEB 4.4 17:31:48 10° NNE 17:35:56 90° NNW 17:39:56 10° SSW
SJ 16-02 3.2 17:32:50 10° WSW 17:36:43 30° WNW 17:40:36 10° N
SKYMED 3 4.5 17:33:47 10° NNE 17:38:09 74° ESE 17:42:29 10° S
YAOGAN 1 2.9 17:35:21 10° SE 17:39:25 42° ENE 17:43:31 10° N
Cosmos 990 Rocket 4.4 17:34:54 10° SSW 17:40:03 66° WNW 17:45:14 10° NNE
Cosmos 1689 Rocket 2.9 17:41:34 26° E 17:41:52 26° E 17:44:20 10° SSE
Cosmos 1844 Rocket 4.2 17:36:56 10° WSW 17:42:04 34° NW 17:47:13 10° NNE
Cosmos 1553 Rocket 4.2 17:36:18 10° N 17:42:28 48° ENE 17:48:32 10° SSE
Aureole 3 Rocket 2.5 17:39:58 10° N 17:43:13 70° E 17:47:18 10° SSE
COSMOS 2406 3.2 17:39:13 10° NNW 17:45:02 81° ENE 17:50:47 10° SSE
Cosmos 2082 Rocket 2.6 17:39:57 10° NNW 17:45:23 42° NE 17:50:47 10° SE
HJ-1C 4.3 17:47:04 26° ENE 17:47:07 26° ENE 17:49:58 10° NNE
Cosmos 1703 3.9 17:43:36 10° SSW 17:47:25 56° WNW 17:51:15 10° N
Cosmos 1825 Rocket 3.8 17:44:12 10° SSE 17:48:24 48° E 17:52:40 10° NNE
IRS-1C Rocket 4.0 17:43:39 10° SSE 17:48:54 81° ENE 17:54:11 10° NNW
Meteor 1-27 4.3 17:43:52 10° N 17:49:19 49° ENE 17:54:40 10° SSE
NOSS 3-1 (A) 4.1 17:41:48 10° NW 17:49:21 89° NE 17:58:06 10° SE
X-37B 1.2 17:46:43 10° W 17:49:50 51° SSW 17:51:36 22° SE
Cosmos 1812 Rocket 3.9 17:48:08 10° NNW 17:52:29 66° W 17:56:46 10° S
ISS -2.6 17:49:39 10° WNW 17:52:44 31° N 17:53:50 25° NE
Okean O Rocket 3.8 17:51:07 10° SSW 17:54:59 29° W 17:58:51 10° NW
ATLAS 5 CENTAUR R/B 4.2 17:56:42 10° NNW 17:58:11 11° N 17:59:44 10° NNE
CZ-4 R/B 1.2 17:55:03 10° SSE 17:59:04 78° ENE 18:03:02 10° N
Iridium 4 Rocket 3.5 17:55:22 10° N 18:00:47 88° W 18:05:41 10° S
SKYMED 2 4.0 17:57:51 10° N 18:02:10 63° WNW 18:06:27 10° SSW
ERS-2 1.9 17:58:38 11° NNE 18:02:11 74° ESE 18:05:48 10° S
CSL-04 Rocket 3.8 17:58:14 10° SE 18:03:27 49° ENE 18:08:46 10° N
Okean-O 2.5 18:02:07 10° SSE 18:06:32 82° ENE 18:11:00 10° NNW
CZ-4C R/B 4.3 18:04:36 10° NW 18:08:47 18° N 18:11:46 14° NE
S3M 4.0 18:03:02 10° N 18:08:59 52° ENE 18:14:57 10° SSE
USA 234 4.2 18:05:52 20° NE 18:09:33 35° N 18:15:20 10° WNW
Cosmos 1340 4.2 18:07:34 10° SW 18:11:03 36° WNW 18:14:33 10° N
Cosmos 1346 Rocket 2.6 18:07:30 10° S 18:11:26 86° E 18:15:12 11° NNE
Cosmos 1655 Rocket 4.2 18:05:52 10° SSE 18:11:44 46° E 18:17:38 10° NNE
Cosmos 2278 Rocket 2.2 18:06:18 10° SSW 18:11:59 90° SSE 18:17:11 13° NNE
Cosmos 1953 Rocket 3.5 18:10:36 10° S 18:14:52 60° E 18:17:58 18° NNE
CZ-2C R/B 3.9 18:09:46 10° S 18:15:08 57° W 18:20:48 10° NNW
SWARM C 4.3 18:14:13 10° S 18:17:31 75° E 18:18:11 53° NNE
SWARM A 4.0 18:14:18 10° S 18:17:37 81° E 18:18:52 36° N
Cosmos 2292 Rocket 3.5 18:14:54 10° S 18:19:41 57° E 18:20:40 43° NE
SAR-Lupe-4 3.5 18:17:50 21° N 18:20:07 82° WNW 18:23:41 10° SSW
Cosmos 44 Rocket 3.5 18:17:28 10° SSW 18:22:13 52° ESE 18:23:19 43° ENE
ARGOS 3.0 18:23:14 10° SSE 18:28:36 84° ENE 18:34:01 10° NNW
DMSP B5D1-3 4.4 18:23:46 10° NNE 18:28:54 82° ESE 18:34:01 10° SSW
Meteor 2-2 Rocket 4.4 18:24:41 10° N 18:30:31 53° ENE 18:34:20 22° SE
Cosmos 1869 3.5 18:27:06 10° N 18:30:11 51° NNE 18:30:11 51° NNE
Cosmos 372 Rocket 4.3 18:30:27 10° SSW 18:35:37 66° WNW 18:39:58 15° NNE
CZ-4B R/B 4.2 18:34:38 10° NNW 18:36:52 17° WNW 18:39:03 10° WSW
Cosmos 468 4.4 18:33:05 10° NNW 18:38:22 82° ENE 18:41:13 28° SSE
CZ-2C R/B 2.7 18:33:45 14° NNE 18:38:36 63° E 18:44:10 10° S
Cosmos 494 Rocket 3.9 18:37:13 10° NNW 18:42:20 62° ENE 18:42:29 62° ENE
Cosmos 2150 Rocket 3.8 18:39:39 10° SSW 18:44:47 78° ESE 18:45:58 54° NE
Cosmos 1048 Rocket 3.9 18:42:11 10° NNW 18:47:21 86° WSW 18:49:36 35° SSE
Cosmos 2297 4.1 18:47:06 10° S 18:51:23 45° SSE 18:51:23 45° SSE
SL-08 RB Rocket 3.9 18:59:18 48° SSW 19:00:23 66° WSW 19:04:51 10° NNW
H-2A R/B 3.7 19:02:49 10° SSW 19:07:19 32° W 19:11:59 10° NNW
Cosmos 1125 Rocket 3.6 19:04:15 10° SSW 19:08:41 65° SSW 19:08:41 65° SSW
Cosmos 2298 Rocket 4.5 19:06:57 10° SW 19:12:12 59° WNW 19:13:35 45° NNW
Cosmos 2266 Rocket 4.0 19:07:42 10° SSW 19:13:56 76° W 19:20:06 10° N
NOSS 2-2 (C) 4.4 19:14:49 10° NW 19:20:07 84° N 19:20:07 84° N
Cosmos 1943 Rocket 4.3 19:22:30 10° SSW 19:23:18 14° S 19:23:18 14° S
Cosmos 2082 Rocket 3.7 19:24:16 10° NW 19:29:22 34° WSW 19:33:42 13° SSW
ISS -0.3 19:26:38 10° WNW 19:26:49 11° WNW 19:26:49 11° WNW
Cosmos 2315 Rocket 4.4 19:40:32 10° NNW 19:46:33 57° W 19:46:33 57° W
ATLAS 2AS CENTAUR R/B 4.2 19:43:21 10° NNW 19:48:20 26° N 19:48:20 26° N
USA 234 4.0 19:53:13 42° NNW 19:53:13 42° NNW 19:57:59 10° NW
Cosmos 2278 Rocket 4.4 19:52:53 10° W 19:56:53 19° NW 19:59:05 16° NNW
CZ-4C R/B 4.2 19:53:27 10° NNW 19:56:58 26° N 19:56:58 26° N
